TimeMDT,TemperatureF,Dew PointF,Humidity,Sea Level PressureIn,VisibilityMPH,Wind Direction,Wind SpeedMPH,Gust SpeedMPH,PrecipitationIn,Events,Conditions,WindDirDegrees,DateUTC
12:53 AM,30.9,25.0,79,30.41,10.0,Calm,Calm,-,N/A,,Clear,0,2012-10-05 06:53:00
1:53 AM,30.2,24.8,80,30.35,10.0,NNW,4.6,-,N/A,,Clear,340,2012-10-05 07:53:00
2:53 AM,28.9,23.0,78,30.43,10.0,NNW,4.6,-,N/A,,Clear,330,2012-10-05 08:53:00
3:53 AM,26.1,21.9,84,30.43,10.0,NW,5.8,-,N/A,,Clear,310,2012-10-05 09:53:00
4:53 AM,28.0,21.9,78,30.44,10.0,Calm,Calm,-,N/A,,Clear,0,2012-10-05 10:53:00
5:53 AM,24.1,21.0,88,30.46,10.0,West,3.5,-,N/A,,Clear,270,2012-10-05 11:53:00
6:53 AM,26.1,21.0,81,30.46,10.0,Calm,Calm,-,N/A,,Clear,0,2012-10-05 12:53:00
7:53 AM,23.0,19.9,88,30.49,10.0,Calm,Calm,-,N/A,,Clear,0,2012-10-05 13:53:00
8:53 AM,27.0,24.1,89,30.50,10.0,Calm,Calm,-,N/A,,Clear,0,2012-10-05 14:53:00
9:53 AM,33.1,25.0,72,30.50,10.0,West,3.5,-,N/A,,Clear,270,2012-10-05 15:53:00
10:53 AM,36.0,26.1,67,30.50,10.0,Calm,Calm,-,N/A,,Clear,0,2012-10-05 16:53:00
11:53 AM,42.1,23.0,47,30.48,10.0,Calm,Calm,-,N/A,,Clear,0,2012-10-05 17:53:00
12:53 PM,45.0,19.9,37,30.48,10.0,Calm,Calm,-,N/A,,Clear,0,2012-10-05 18:53:00
1:53 PM,46.9,19.0,33,30.45,10.0,Variable,3.5,-,N/A,,Clear,0,2012-10-05 19:53:00
2:53 PM,48.9,18.0,29,30.43,10.0,South,4.6,-,N/A,,Clear,180,2012-10-05 20:53:00
3:53 PM,50.0,19.9,31,30.42,10.0,Calm,Calm,-,N/A,,Clear,0,2012-10-05 21:53:00
4:53 PM,51.1,19.9,29,30.40,10.0,North,9.2,-,N/A,,Clear,10,2012-10-05 22:53:00
5:53 PM,48.9,21.0,33,30.41,10.0,North,13.8,-,N/A,,Clear,360,2012-10-05 23:53:00
6:53 PM,46.9,19.9,34,30.42,10.0,NNE,10.4,-,N/A,,Clear,20,2012-10-06 00:53:00
7:53 PM,45.0,21.0,39,30.44,10.0,NNE,13.8,19.6,N/A,,Clear,20,2012-10-06 01:53:00
8:53 PM,42.1,21.9,45,30.46,10.0,NW,4.6,-,N/A,,Clear,310,2012-10-06 02:53:00
9:53 PM,37.9,19.9,48,30.45,10.0,Calm,Calm,-,N/A,,Clear,0,2012-10-06 03:53:00
10:53 PM,30.9,21.0,67,30.46,10.0,West,3.5,-,N/A,,Clear,270,2012-10-06 04:53:00
11:53 PM,30.0,19.9,66,30.46,10.0,West,3.5,-,N/A,,Clear,270,2012-10-06 05:53:00